When you browse on this site, cookies collect data to enhance your experience and personalize the content and advertising you see.
Visit our Privacy Policy to learn more. By continuing to use the site, you agree to this use of cookies and data.
  • In Austria
  • List of Countries
  • For 7 days
  • Water Temperature
  • Weather Map
  • News
  • Weather Widgets
  • user-avatar
    Login

    Hourly Weather Envermeu

    Today, 23 September, Monday

    Time Temperature Precipitation Wind Pressure Humidity
    00:00 +12°C° 0 mm 5 mps 748 mmHg 88%
    01:00 +11°C° 0.1 mm 6 mps 748 mmHg 89%
    02:00 +11°C° 0.1 mm 6 mps 748 mmHg 91%
    03:00 +11°C° 0.1 mm 6 mps 748 mmHg 93%
    04:00 +11°C° 0.1 mm 6 mps 749 mmHg 93%
    05:00 +11°C° 0.1 mm 6 mps 749 mmHg 94%
    06:00 +12°C° 0 mm 5 mps 750 mmHg 93%
    07:00 +13°C° 0 mm 5 mps 751 mmHg 88%
    08:00 +14°C° 0 mm 5 mps 751 mmHg 83%
    09:00 +15°C° 0 mm 5 mps 751 mmHg 79%
    10:00 +17°C° 0 mm 5 mps 751 mmHg 70%
    11:00 +19°C° 0 mm 5 mps 751 mmHg 61%
    12:00 +20°C° 0 mm 5 mps 751 mmHg 52%
    13:00 +21°C° 0 mm 5 mps 751 mmHg 53%
    14:00 +21°C° 0 mm 5 mps 751 mmHg 54%
    15:00 +21°C° 0 mm 5 mps 750 mmHg 54%
    16:00 +20°C° 0.4 mm 5 mps 750 mmHg 64%
    17:00 +18°C° 0.4 mm 4 mps 750 mmHg 74%
    18:00 +15°C° 0.4 mm 4 mps 750 mmHg 84%
    19:00 +15°C° 0.4 mm 5 mps 750 mmHg 85%
    20:00 +15°C° 0.4 mm 5 mps 750 mmHg 86%
    21:00 +15°C° 0.4 mm 6 mps 750 mmHg 87%
    22:00 +15°C° 0.4 mm 6 mps 750 mmHg 88%
    23:00 +15°C° 0.4 mm 6 mps 749 mmHg 89%

    Tomorrow, 24 September, Tuesday

    Time Temperature Precipitation Wind Pressure Humidity
    00:00 +15°C° 0.4 mm 7 mps 749 mmHg 90%
    01:00 +15°C° 0 mm 7 mps 749 mmHg 90%
    02:00 +15°C° 0 mm 7 mps 748 mmHg 90%
    03:00 +15°C° 0 mm 7 mps 748 mmHg 90%
    04:00 +15°C° 0.1 mm 7 mps 747 mmHg 89%
    05:00 +15°C° 0.1 mm 7 mps 746 mmHg 88%
    06:00 +15°C° 0.1 mm 7 mps 746 mmHg 87%
    07:00 +13°C° 1.8 mm 8 mps 745 mmHg 89%
    08:00 +13°C° 1.8 mm 8 mps 745 mmHg 91%
    09:00 +13°C° 1.8 mm 8 mps 745 mmHg 93%
    10:00 +15°C° 2.1 mm 8 mps 744 mmHg 92%
    11:00 +15°C° 2.1 mm 8 mps 744 mmHg 91%
    12:00 +15°C° 2.1 mm 7 mps 743 mmHg 90%
    13:00 +16°C° 0.3 mm 8 mps 743 mmHg 85%
    14:00 +17°C° 0.3 mm 8 mps 743 mmHg 81%
    15:00 +18°C° 0.3 mm 9 mps 743 mmHg 76%
    16:00 +17°C° 0 mm 8 mps 744 mmHg 78%
    17:00 +16°C° 0 mm 7 mps 744 mmHg 81%
    18:00 +14°C° 0 mm 6 mps 744 mmHg 84%
    19:00 +14°C° 0 mm 6 mps 744 mmHg 83%
    20:00 +14°C° 0 mm 6 mps 745 mmHg 83%
    21:00 +14°C° 0 mm 6 mps 745 mmHg 82%
    22:00 +14°C° 0.1 mm 7 mps 745 mmHg 83%
    23:00 +12°C° 0.1 mm 7 mps 745 mmHg 83%

    Day after tomorrow, 25 September, Wednesday

    Time Temperature Precipitation Wind Pressure Humidity
    00:00 +12°C° 0.1 mm 8 mps 745 mmHg 84%
    01:00 +12°C° 0.2 mm 8 mps 744 mmHg 85%
    02:00 +12°C° 0.2 mm 8 mps 744 mmHg 86%
    03:00 +11°C° 0.2 mm 8 mps 744 mmHg 86%
    04:00 +12°C° 0.9 mm 8 mps 744 mmHg 88%
    05:00 +12°C° 0.9 mm 9 mps 743 mmHg 90%
    06:00 +12°C° 0.9 mm 9 mps 743 mmHg 92%
    07:00 +13°C° 0.4 mm 9 mps 743 mmHg 90%
    08:00 +13°C° 0.4 mm 9 mps 744 mmHg 87%
    09:00 +14°C° 0.4 mm 10 mps 744 mmHg 85%
    10:00 +14°C° 0.4 mm 10 mps 744 mmHg 85%
    11:00 +14°C° 0.4 mm 10 mps 744 mmHg 85%
    12:00 +14°C° 0.4 mm 10 mps 744 mmHg 85%
    13:00 +15°C° 0.2 mm 9 mps 744 mmHg 83%
    14:00 +16°C° 0.2 mm 9 mps 744 mmHg 81%
    15:00 +16°C° 0.2 mm 9 mps 744 mmHg 79%
    16:00 +16°C° 0 mm 8 mps 744 mmHg 82%
    17:00 +15°C° 0 mm 8 mps 745 mmHg 84%
    18:00 +14°C° 0 mm 7 mps 745 mmHg 87%
    19:00 +15°C° 0.2 mm 7 mps 745 mmHg 89%
    20:00 +15°C° 0.2 mm 7 mps 746 mmHg 90%
    21:00 +15°C° 0.2 mm 6 mps 746 mmHg 92%
    22:00 +15°C° 0.1 mm 6 mps 746 mmHg 93%
    23:00 +15°C° 0.1 mm 6 mps 746 mmHg 93%

    26 September, Thursday

    Time Temperature Precipitation Wind Pressure Humidity
    00:00 +15°C° 0.1 mm 6 mps 746 mmHg 94%
    01:00 +15°C° 0.4 mm 6 mps 747 mmHg 95%
    02:00 +16°C° 0.4 mm 6 mps 747 mmHg 95%
    03:00 +16°C° 0.4 mm 6 mps 747 mmHg 96%
    04:00 +16°C° 0.3 mm 7 mps 747 mmHg 95%
    05:00 +16°C° 0.3 mm 7 mps 747 mmHg 94%
    06:00 +16°C° 0.3 mm 7 mps 747 mmHg 94%
    07:00 +17°C° 0.1 mm 7 mps 747 mmHg 89%
    08:00 +17°C° 0.1 mm 8 mps 748 mmHg 85%
    09:00 +17°C° 0.1 mm 8 mps 748 mmHg 80%
    10:00 +17°C° 0 mm 8 mps 748 mmHg 79%
    11:00 +17°C° 0 mm 7 mps 748 mmHg 79%
    12:00 +17°C° 0 mm 7 mps 748 mmHg 78%
    13:00 +18°C° 0.1 mm 7 mps 748 mmHg 77%
    14:00 +18°C° 0.1 mm 7 mps 748 mmHg 77%
    15:00 +18°C° 0.1 mm 7 mps 748 mmHg 77%
    16:00 +18°C° 0.3 mm 7 mps 748 mmHg 78%
    17:00 +17°C° 0.3 mm 7 mps 748 mmHg 80%
    18:00 +17°C° 0.3 mm 7 mps 748 mmHg 82%
    19:00 +16°C° 0.4 mm 7 mps 748 mmHg 85%
    20:00 +16°C° 0.4 mm 6 mps 749 mmHg 88%
    21:00 +15°C° 0.4 mm 6 mps 749 mmHg 90%
    22:00 +15°C° 0.4 mm 6 mps 749 mmHg 90%
    23:00 +15°C° 0.4 mm 6 mps 749 mmHg 90%

    27 September, Friday

    Time Temperature Precipitation Wind Pressure Humidity
    00:00 +14°C° 0.4 mm 6 mps 749 mmHg 90%
    01:00 +14°C° 0 mm 5 mps 749 mmHg 90%
    02:00 +13°C° 0 mm 5 mps 749 mmHg 90%
    03:00 +12°C° 0 mm 5 mps 749 mmHg 91%
    04:00 +12°C° 0 mm 5 mps 749 mmHg 92%
    05:00 +11°C° 0 mm 6 mps 749 mmHg 93%
    06:00 +10°C° 0 mm 6 mps 749 mmHg 94%
    07:00 +12°C° 0.1 mm 7 mps 749 mmHg 89%
    08:00 +14°C° 0.1 mm 7 mps 749 mmHg 85%
    09:00 +15°C° 0.1 mm 8 mps 749 mmHg 80%
    10:00 +15°C° 0.2 mm 8 mps 749 mmHg 75%
    11:00 +16°C° 0.2 mm 8 mps 749 mmHg 70%
    12:00 +17°C° 0.2 mm 8 mps 749 mmHg 65%
    13:00 +17°C° 0.1 mm 8 mps 749 mmHg 65%
    14:00 +17°C° 0.1 mm 8 mps 749 mmHg 64%
    15:00 +16°C° 0.1 mm 7 mps 749 mmHg 64%
    16:00 +16°C° 0.1 mm 7 mps 749 mmHg 68%
    17:00 +15°C° 0.1 mm 7 mps 749 mmHg 72%
    18:00 +14°C° 0.1 mm 6 mps 749 mmHg 75%
    19:00 +14°C° 0.2 mm 7 mps 749 mmHg 77%
    20:00 +14°C° 0.2 mm 7 mps 749 mmHg 79%
    21:00 +14°C° 0.2 mm 7 mps 750 mmHg 80%
    22:00 +12°C° 0.3 mm 7 mps 750 mmHg 82%
    23:00 +12°C° 0.3 mm 8 mps 750 mmHg 83%

    28 September, Saturday

    Time Temperature Precipitation Wind Pressure Humidity
    00:00 +12°C° 0.3 mm 8 mps 750 mmHg 85%
    01:00 +11°C° 0.1 mm 8 mps 750 mmHg 86%
    02:00 +11°C° 0.1 mm 8 mps 750 mmHg 87%
    03:00 +10°C° 0.1 mm 8 mps 750 mmHg 89%
    04:00 +10°C° 0.1 mm 8 mps 750 mmHg 89%
    05:00 +10°C° 0.1 mm 8 mps 750 mmHg 89%
    06:00 +10°C° 0.1 mm 8 mps 750 mmHg 89%
    07:00 +11°C° 0.1 mm 8 mps 750 mmHg 85%
    08:00 +12°C° 0.1 mm 9 mps 751 mmHg 81%
    09:00 +13°C° 0.1 mm 9 mps 751 mmHg 77%
    10:00 +15°C° 0.2 mm 9 mps 751 mmHg 73%
    11:00 +15°C° 0.2 mm 9 mps 751 mmHg 69%
    12:00 +16°C° 0.2 mm 9 mps 751 mmHg 65%
    13:00 +16°C° 0.1 mm 9 mps 751 mmHg 65%
    14:00 +16°C° 0.1 mm 8 mps 751 mmHg 64%
    15:00 +16°C° 0.1 mm 8 mps 750 mmHg 64%
    16:00 +15°C° 0.1 mm 7 mps 750 mmHg 68%
    17:00 +14°C° 0.1 mm 6 mps 750 mmHg 73%
    18:00 +14°C° 0.1 mm 6 mps 750 mmHg 78%
    19:00 +14°C° 0.2 mm 6 mps 750 mmHg 80%
    20:00 +13°C° 0.2 mm 6 mps 750 mmHg 83%
    21:00 +13°C° 0.2 mm 6 mps 750 mmHg 85%
    22:00 +13°C° 0.7 mm 6 mps 750 mmHg 88%
    23:00 +12°C° 0.7 mm 7 mps 750 mmHg 91%
    Show more